STARLINK-1769 (46382 NORAD) Tracking and Keplerian Element Data

This shows tracking and keplerian element data for the satellite.

Feedback or suggestion? Click here.




ElementValue
Catalog46382
NameSTARLINK-1769
Epoch Orbit178
Epoch Day268.91668981
Epoch Year2020
RAAN323.7396
Inclination53.0012
Eccentricity0.0001342
Argument of Perigee64.2602
Mean Anonmoly154.5986
Mean Motion15.62772857
Decay Rate0.00030182
L11 46382U 20062BK 20268.91668981 .00030182 00000-0 33397-3 0 9991
L22 46382 53.0012 323.7396 0001342 64.2602 154.5986 15.62772857 1783

Live tracking and technical data element details for STARLINK-1769 (NORAD 46382). STARLINK-1769 can be tracked NOW for your location showing map with azimuth and elevation plus other details from your city location.

Track the satellite on the map from your city or location and see movement details for azimuth, elevation, latitude, longitude, range, height, and movement on the map or in text.







IsCatalogInMostPopularTable: catalog: 46382, numindb: 9
Update: records affected: 1



GetName: 46382 STARLINK-1769

Hit Count: updated at: Mon, 28 Sep 2020 15:03:30 GMT